Latest Weather Observations for Tarcoola

IDS60801

Issued at 10:35 am CDT Saturday 22 November 2014 (issued every 30 minutes, with the page automatically refreshed every 10 minutes)

About weather observations | Map of weather stations | Latest weather observations for SA | Other Formats
Station Details ID: 016098 Name: TARCOOLA AERO Lat: -30.71 Lon: 134.58 Height: 123.0 m
Data from the previous 72 hours. | See also: Recent months at Tarcoola
Date/Time
CDT
Temp
°C
App
Temp
°C
Dew
Point
Rel
Hum
%
Delta-T
°C
Wind Press
QNH
hPa
Press
MSL
hPa
Rain
since 9 am
mm
Dir
 
Spd
km/h
Gust
km/h
Spd
kts
Gust
kts
22/10:30am 32.6 29.4 11.2 27 12.6 WSW 19 24 10 13 1007.0 1006.4 0.2
22/10:00am 32.7 31.2 11.8 28 12.4 WSW 11 20 6 11 1006.7 1006.1 0.2
22/09:30am 32.4 30.9 10.4 26 12.7 NW 9 17 5 9 1006.6 1006.0 0.2
22/09:00am 31.7 27.3 10.4 27 12.3 NE 24 33 13 18 1005.7 1005.1 0.8
22/08:30am 30.4 25.8 10.9 30 11.3 NE 26 35 14 19 1005.5 1004.9 0.8
22/08:00am 28.8 24.8 11.8 35 9.9 ENE 24 32 13 17 1005.4 1004.8 0.8
22/07:30am 27.4 23.0 13.0 41 8.5 ENE 28 39 15 21 1005.4 1004.8 0.8
22/07:00am 25.5 23.6 15.2 53 6.2 E 19 28 10 15 1005.3 1004.7 0.8
22/06:30am 23.9 24.0 16.4 63 4.6 E 11 17 6 9 1005.4 1004.8 0.8
22/06:00am 24.2 23.6 16.7 63 4.6 E 15 19 8 10 1005.3 1004.7 0.8
22/05:30am 24.0 22.9 17.3 66 4.2 E 19 24 10 13 1005.2 1004.6 0.8
22/05:00am 23.9 23.1 18.1 70 3.7 E 19 24 10 13 1005.1 1004.5 0.8
22/04:30am 23.7 22.9 17.0 66 4.2 E 17 24 9 13 1005.2 1004.6 0.8
22/04:00am 22.9 23.8 18.4 76 2.8 E 11 19 6 10 1005.7 1005.1 0.8
22/03:30am 24.4 23.1 15.9 59 5.2 SSW 17 24 9 13 1006.4 1005.8 0.0
22/03:00am 28.9 26.9 10.1 31 10.7 E 11 17 6 9 1005.9 1005.3 0.0
22/02:30am 29.0 26.7 10.6 32 10.5 E 13 17 7 9 1006.4 1005.8 0.0
22/02:00am 29.1 26.6 11.2 33 10.3 E 15 20 8 11 1006.6 1006.0 0.0
22/01:30am 29.5 27.3 12.0 34 10.3 E 15 19 8 10 1006.8 1006.2 0.0
22/01:00am 29.7 27.8 13.0 35 9.9 E 15 20 8 11 1007.1 1006.5 0.0
22/12:30am 29.3 28.1 13.9 39 9.3 E 13 17 7 9 1007.2 1006.6 0.0
22/12:00am 28.4 30.1 16.3 47 7.6 E 2 9 1 5 1007.5 1007.0 0.0
 
Date/Time
CDT
Temp
°C
App
Temp
°C
Dew
Point
Rel
Hum
%
Delta-T
°C
Wind Press
QNH
hPa
Press
MSL
hPa
Rain
since 9 am
mm
Dir
 
Spd
km/h
Gust
km/h
Spd
kts
Gust
kts
21/11:30pm 28.1 30.5 17.0 51 7.0 CALM 0 0 0 0 1007.5 1007.0 0.0
21/11:00pm 28.3 29.8 17.5 52 6.8 ESE 6 7 3 4 1007.7 1007.2 0.0
21/10:30pm 29.1 29.6 15.6 44 8.4 ESE 7 9 4 5 1007.7 1007.2 0.0
21/10:00pm 29.8 29.8 15.1 40 9.0 E 9 11 5 6 1007.6 1007.1 0.0
21/09:30pm 30.5 32.3 15.4 40 9.4 CALM 0 0 0 0 1007.6 1007.1 0.0
21/09:00pm 31.5 32.5 13.3 33 11.0 CALM 0 0 0 0 1007.6 1007.1 0.0
21/08:30pm 32.6 31.8 12.8 30 11.9 N 9 11 5 6 1007.6 1007.1 0.0
21/08:00pm 33.5 31.8 12.5 28 12.6 N 13 19 7 10 1007.7 1007.2 0.0
21/07:30pm 33.7 31.1 12.1 27 12.9 N 17 28 9 15 1007.6 1007.1 0.0
21/07:00pm 33.7 32.3 12.1 27 12.9 NNW 11 19 6 10 1007.6 1007.1 0.0
21/06:30pm 34.5 31.4 11.6 25 13.6 NW 19 28 10 15 1007.5 1007.0 0.0
21/06:00pm 34.6 32.7 11.7 25 13.7 NNW 13 20 7 11 1007.7 1007.2 0.0
21/05:30pm 34.7 31.9 11.2 24 13.9 N 17 24 9 13 1007.8 1007.3 0.0
21/05:00pm 33.8 30.7 10.4 24 13.6 NNE 17 28 9 15 1008.1 1007.6 0.0
21/04:30pm 33.5 30.2 9.5 23 13.8 NNW 17 24 9 13 1008.4 1007.9 0.0
21/04:00pm 33.5 31.3 9.5 23 13.7 WNW 11 19 6 10 1008.9 1008.4 0.0
21/03:30pm 33.2 30.2 9.3 23 13.6 N 15 20 8 11 1009.5 1009.0 0.0
21/03:00pm 32.5 30.5 8.7 23 13.4 NNE 9 24 5 13 1010.1 1009.6 0.0
21/02:30pm 31.2 28.8 7.0 22 13.2 NNE 9 17 5 9 1010.8 1010.3 0.0
21/02:00pm 31.4 29.1 5.8 20 13.7 NW 7 17 4 9 1011.4 1010.9 0.0
21/01:30pm 29.9 26.3 5.2 21 13.0 NE 13 22 7 12 1012.2 1011.6 0.0
21/01:00pm 28.7 26.2 6.7 25 11.8 NE 9 17 5 9 1012.9 1012.3 0.0
21/12:30pm 27.8 24.3 7.1 27 11.1 NE 15 24 8 13 1013.3 1012.7 0.0
21/12:00pm 26.7 23.7 9.1 33 9.7 ENE 15 24 8 13 1013.7 1013.1 0.0
21/11:30am 25.7 23.4 10.3 38 8.6 ENE 13 20 7 11 1014.1 1013.5 0.0
21/11:00am 24.2 21.6 10.8 43 7.5 NE 15 22 8 12 1014.2 1013.6 0.0
21/10:30am 23.7 21.2 12.4 49 6.5 NE 17 20 9 11 1014.5 1013.9 0.0
21/10:00am 22.2 20.2 11.6 51 6.0 ENE 13 19 7 10 1014.4 1013.8 0.0
21/09:30am 21.5 19.3 13.4 60 4.7 E 17 20 9 11 1014.4 1013.8 0.0
21/09:00am 19.8 18.0 13.3 66 3.7 ESE 15 19 8 10 1014.1 1013.5 0.0
21/08:30am 18.9 17.4 13.1 69 3.3 SE 13 17 7 9 1014.4 1013.8 0.0
21/08:00am 17.9 16.4 13.2 74 2.7 SE 13 19 7 10 1014.3 1013.7 0.0
21/07:30am 17.1 18.2 13.6 80 2.0 CALM 0 0 0 0 1013.9 1013.3 0.0
21/07:00am 15.7 16.8 13.5 87 1.2 CALM 0 0 0 0 1013.5 1012.9 0.0
21/06:30am 14.7 14.0 13.2 91 0.8 S 9 11 5 6 1013.3 1012.7 0.0
21/06:00am 15.1 14.9 13.1 88 1.1 E 6 7 3 4 1013.1 1012.5 0.0
21/05:30am 15.6 16.6 13.3 86 1.3 CALM 0 6 0 3 1013.2 1012.6 0.0
21/05:00am 16.0 15.8 13.5 85 1.4 S 7 11 4 6 1013.2 1012.6 0.0
21/04:30am 16.3 15.0 13.6 84 1.5 S 13 19 7 10 1013.0 1012.4 0.0
21/04:00am 16.7 15.0 13.6 82 1.8 S 15 19 8 10 1013.3 1012.7 0.0
21/03:30am 17.2 16.3 13.7 80 2.0 S 11 15 6 8 1013.3 1012.7 0.0
21/03:00am 17.4 16.9 13.7 79 2.1 SSW 9 11 5 6 1013.3 1012.7 0.0
21/02:30am 17.9 17.7 13.6 76 2.5 S 7 13 4 7 1013.5 1012.9 0.0
21/02:00am 18.4 17.5 13.7 74 2.7 S 11 13 6 7 1013.7 1013.1 0.0
21/01:30am 19.0 18.4 13.4 70 3.2 S 9 13 5 7 1014.1 1013.5 0.0
21/01:00am 19.4 18.4 13.3 68 3.5 S 11 17 6 9 1014.1 1013.5 0.0
21/12:30am 19.8 18.1 13.7 68 3.5 S 15 22 8 12 1013.9 1013.3 0.0
21/12:00am 20.4 17.4 13.8 66 3.8 S 22 28 12 15 1013.9 1013.3 0.0
 
Date/Time
CDT
Temp
°C
App
Temp
°C
Dew
Point
Rel
Hum
%
Delta-T
°C
Wind Press
QNH
hPa
Press
MSL
hPa
Rain
since 9 am
mm
Dir
 
Spd
km/h
Gust
km/h
Spd
kts
Gust
kts
20/11:30pm 21.1 18.7 13.8 63 4.2 S 19 24 10 13 1013.8 1013.2 0.0
20/11:00pm 21.7 20.1 13.9 61 4.6 S 15 26 8 14 1013.8 1013.2 0.0
20/10:30pm 22.2 19.5 13.5 57 5.1 S 20 26 11 14 1013.4 1012.8 0.0
20/10:00pm 22.9 20.3 13.7 56 5.4 S 20 28 11 15 1013.0 1012.4 0.0
20/09:30pm 23.5 20.9 13.7 54 5.7 SSW 20 28 11 15 1012.6 1012.0 0.0
20/09:00pm 24.0 20.6 13.8 53 6.0 SSW 24 32 13 17 1012.3 1011.7 0.0
20/08:30pm 24.8 21.6 14.3 52 6.3 SSW 24 32 13 17 1011.6 1011.1 0.0
20/08:00pm 25.7 21.4 14.5 50 6.7 S 30 39 16 21 1011.2 1010.7 0.0
20/07:30pm 27.7 24.1 14.3 43 8.1 SW 26 37 14 20 1010.7 1010.2 0.0
20/07:00pm 28.4 23.8 13.5 40 8.9 SW 30 43 16 23 1010.1 1009.6 0.0
20/06:30pm 29.5 26.9 13.7 38 9.5 WSW 20 32 11 17 1009.8 1009.3 0.0
20/06:00pm 30.0 26.1 13.3 36 10.0 WSW 26 39 14 21 1009.7 1009.2 0.0
20/05:30pm 30.0 25.9 13.7 37 9.8 WSW 28 39 15 21 1009.8 1009.3 0.0
20/05:00pm 29.7 25.3 13.0 35 9.9 WSW 28 37 15 20 1009.9 1009.4 0.0
20/04:30pm 31.0 27.9 13.3 34 10.7 WSW 22 39 12 21 1009.9 1009.4 0.0
20/04:00pm 30.0 27.9 13.7 37 9.8 SW 17 20 9 11 1010.0 1009.5 0.0
20/03:30pm 30.7 27.5 13.0 33 10.6 W 22 32 12 17 1010.1 1009.6 0.0
20/03:00pm 30.4 27.5 14.1 37 9.9 W 22 32 12 17 1010.4 1009.9 0.0
20/02:30pm 30.2 28.5 14.7 39 9.5 WNW 17 26 9 14 1010.7 1010.2 0.0
20/02:00pm 30.2 28.1 15.1 40 9.3 SW 20 24 11 13 1011.2 1010.7 0.0
20/01:30pm 28.9 26.0 15.1 43 8.5 W 24 35 13 19 1011.6 1011.1 0.0
20/01:00pm 28.1 26.5 16.4 49 7.3 W 20 26 11 14 1012.3 1011.7 0.0
20/12:30pm 27.1 26.0 16.4 52 6.6 WNW 17 30 9 16 1012.7 1012.1 0.0
20/12:00pm 26.5 26.1 18.9 63 4.9 WNW 19 28 10 15 1013.1 1012.5 0.0
20/11:30am 25.6 25.5 19.5 69 4.0 NNW 19 26 10 14 1013.2 1012.6 0.0
20/11:00am 24.5 23.7 18.4 69 3.9 N 20 26 11 14 1012.4 1011.8 0.0
20/10:30am 22.8 21.2 17.5 72 3.3 NE 22 30 12 16 1011.3 1010.8 0.0
20/10:18am 22.9 22.2 18.2 75 3.0 ENE 19 24 10 13 1011.3 1010.8 0.0
20/10:00am 22.2 22.0 17.6 75 2.9 NNW 15 20 8 11 1013.5 1012.9 0.0
20/09:30am 21.7 20.9 17.9 79 2.4 WNW 19 26 10 14 1014.1 1013.5 0.0
20/09:00am 21.3 21.1 18.5 84 1.8 W 17 28 9 15 1014.3 1013.7 11.8
20/08:30am 21.0 20.9 18.8 87 1.4 W 17 24 9 13 1014.4 1013.8 11.8
20/08:00am 20.7 20.1 18.8 89 1.2 W 20 26 11 14 1014.5 1013.9 11.8
20/07:30am 20.6 21.7 18.9 90 1.1 N 11 17 6 9 1013.2 1012.6 11.8
20/07:00am 20.7 20.8 19.2 91 1.0 NNW 17 24 9 13 1013.3 1012.7 11.0
20/06:30am 20.6 21.1 19.3 92 0.8 N 15 20 8 11 1011.3 1010.8 11.0
20/06:00am 20.5 21.7 19.0 91 0.9 N 11 15 6 8 1011.1 1010.6 10.2
20/05:30am 20.7 22.9 19.2 91 1.0 N 6 11 3 6 1011.2 1010.7 9.6
20/05:00am 20.5 20.9 19.0 91 0.9 W 15 20 8 11 1012.4 1011.8 9.0
20/04:30am 20.5 20.5 19.0 91 0.9 WNW 17 24 9 13 1013.0 1012.4 7.4
20/04:00am 20.5 21.2 18.8 90 1.1 W 13 17 7 9 1012.8 1012.2 4.0
20/03:30am 20.5 20.9 19.0 91 0.9 WSW 15 20 8 11 1012.3 1011.7 2.2
20/03:00am 20.4 20.3 18.7 90 1.1 SW 17 22 9 12 1012.0 1011.4 1.8
20/02:30am 20.8 19.3 18.6 87 1.4 WSW 24 32 13 17 1012.9 1012.3 0.6
20/02:00am 21.7 18.9 18.1 80 2.3 WSW 30 46 16 25 1013.7 1013.1 0.2
20/01:30am 22.8 18.5 17.0 70 3.6 WSW 35 48 19 26 1013.8 1013.2 0.2
20/01:00am 24.7 20.5 16.2 59 5.2 WSW 33 50 18 27 1013.3 1012.7 0.2
20/12:38am 25.2 21.0 15.8 56 5.7 SW 32 50 17 27 1013.1 1012.5 0.2
20/12:30am 25.2 20.9 15.8 56 5.7 WSW 33 50 18 27 1013.2 1012.6 0.2
20/12:24am 25.5 21.7 15.8 55 5.9 WSW 30 50 16 27 1013.2 1012.6 0.2
20/12:00am 25.8 22.3 15.5 53 6.3 SW 28 41 15 22 1013.1 1012.5 0.2
 
Date/Time
CDT
Temp
°C
App
Temp
°C
Dew
Point
Rel
Hum
%
Delta-T
°C
Wind Press
QNH
hPa
Press
MSL
hPa
Rain
since 9 am
mm
Dir
 
Spd
km/h
Gust
km/h
Spd
kts
Gust
kts
19/11:30pm 26.4 22.4 15.1 49 6.9 SW 30 39 16 21 1013.0 1012.4 0.2
19/11:07pm 27.2 21.5 15.2 47 7.3 WSW 39 57 21 31 1012.7 1012.1 0.2
19/11:00pm 27.2 21.1 15.2 47 7.3 W 41 57 22 31 1012.7 1012.1 0.2
19/10:46pm 27.7 20.6 15.0 45 7.7 WSW 46 54 25 29 1012.3 1011.7 0.2
19/10:30pm 27.8 21.3 15.1 46 7.8 W 43 67 23 36 1012.2 1011.6 0.2
19/10:03pm 26.9 19.9 16.2 52 6.6 W 48 67 26 36 1010.6 1010.1 0.0
19/10:00pm 27.8 18.8 15.1 46 7.8 W 56 67 30 36 1010.4 1009.9 0.0
19/09:59pm 27.9 18.9 14.9 45 7.9 W 56 67 30 36 1010.3 1009.8 0.0
19/09:53pm 33.3 24.8 9.4 23 13.7 NW 44 78 24 42 1010.0 1009.5 0.0
19/09:30pm 34.6 30.1 2.2 13 16.7 N 15 20 8 11 1008.0 1007.5 0.0
19/09:00pm 35.1 30.1 1.5 12 17.1 N 17 20 9 11 1007.8 1007.3 0.0
19/08:30pm 36.0 30.7 2.1 12 17.5 N 19 24 10 13 1007.4 1006.8 0.0
19/08:00pm 37.0 30.7 1.7 11 18.2 N 24 35 13 19 1007.4 1006.8 0.0
19/07:30pm 37.5 32.0 2.1 11 18.5 N 20 30 11 16 1007.2 1006.6 0.0
19/07:00pm 38.3 32.9 2.7 11 18.8 N 20 33 11 18 1006.9 1006.3 0.0
19/06:30pm 38.6 33.3 2.9 11 19.0 N 20 30 11 16 1006.9 1006.3 0.0
19/06:00pm 39.0 33.4 3.2 11 19.2 N 22 32 12 17 1007.3 1006.7 0.0
19/05:30pm 38.9 32.5 3.1 11 19.1 N 26 39 14 21 1007.9 1007.4 0.0
19/05:00pm 38.1 31.6 2.5 11 18.7 N 26 37 14 20 1008.4 1007.9 0.0
19/04:30pm 38.8 31.8 1.7 10 19.4 NNW 28 43 15 23 1008.7 1008.2 0.0
19/04:00pm 39.2 33.0 2.0 10 19.5 N 24 37 13 20 1009.2 1008.7 0.0
19/03:31pm 39.3 31.9 2.1 10 19.6 N 30 50 16 27 1009.8 1009.3 0.0
19/03:30pm 39.2 31.8 2.0 10 19.6 N 30 46 16 25 1009.9 1009.4 0.0
19/03:01pm 39.1 31.9 0.5 9 19.8 N 28 46 15 25 1010.6 1010.1 0.0
19/03:00pm 38.8 31.2 0.3 9 19.7 N 30 46 16 25 1010.6 1010.1 0.0
19/02:30pm 38.6 31.3 0.1 9 19.6 N 28 43 15 23 1011.3 1010.8 0.0
19/02:00pm 37.4 29.6 -0.8 9 19.0 N 30 54 16 29 1011.7 1011.2 0.0
19/01:31pm 37.1 29.3 -1.0 9 18.9 N 30 48 16 26 1012.4 1011.8 0.0
19/01:30pm 37.0 28.8 -1.1 9 18.8 N 32 48 17 26 1012.5 1011.9 0.0
19/01:22pm 37.2 29.4 -0.9 9 18.9 N 30 48 16 26 1012.4 1011.8 0.0
19/01:00pm 37.0 29.2 -1.1 9 18.8 N 30 46 16 25 1013.1 1012.5 0.0
19/12:30pm 35.6 28.2 -0.7 10 17.9 N 28 39 15 21 1013.8 1013.2 0.0
19/12:00pm 35.2 27.0 -1.0 10 17.7 N 32 43 17 23 1014.4 1013.8 0.0
19/11:30am 34.2 25.9 -1.7 10 17.2 N 32 44 17 24 1014.8 1014.3 0.0
19/11:00am 33.0 24.2 -1.4 11 16.5 NNE 35 44 19 24 1015.0 1014.5 0.0

Other Formats:

Comma delimited format used in spreadsheet applications
http://www.bom.gov.au/fwo/IDS60801/IDS60801.94655.axf

JavaScript Object Notation format (JSON) in row-major order
http://www.bom.gov.au/fwo/IDS60801/IDS60801.94655.json